Simultaneous Nadir Overpasses (SNOs) Predictions

Prediction of SNOs between AQUA and NOAA-19 Satellite Orbit:

Table of predicted SNOs for the next 14.0 days since TLE Epoch: 7/19/2013
Index Date (AQUA) Time (AQUA) Lat,Lon (AQUA) SZA (AQUA ) Date (NOAA-19) Time (NOAA-19) Lat,Lon (NOAA-19) SZA (NOAA-19 ) Distance(km) Time Diff (sec)
1 07/19/2013 17:03:07 79.98,-177.64 71.93 07/19/2013 17:01:55 79.28,-175.18 71.74 91.73 72
2 07/19/2013 17:40:21 -50.96, 108.66 148.44 07/19/2013 17:40:25 -50.95, 108.68 148.43 1.44 4
3 07/21/2013 21:46:12 81.69, 136.28 68.30 07/21/2013 21:44:59 80.97, 137.33 68.08 82.03 73
4 07/21/2013 22:24:57 -52.17, 37.05 147.01 07/21/2013 22:25:04 -52.18, 37.03 147.00 1.57 7
5 07/24/2013 02:29:10 81.29, 97.30 64.33 07/24/2013 02:27:57 80.69, 96.00 64.14 70.64 73
6 07/24/2013 03:09:08 -51.93, -33.90 146.78 07/24/2013 03:09:17 -51.93, -33.90 146.77 0.24 9
7 07/26/2013 07:12:02 78.54, 50.90 60.08 07/26/2013 07:10:49 78.17, 49.13 59.92 57.59 73
8 07/26/2013 07:53:15 -51.47,-104.76 146.72 07/26/2013 07:53:26 -51.46,-104.73 146.70 1.73 11
9 07/28/2013 11:54:49 74.38, -5.62 55.61 07/28/2013 11:53:36 74.18, -6.85 55.50 43.01 73
10 07/28/2013 12:37:40 -52.08,-176.10 145.71 07/28/2013 12:37:54 -52.08,-176.09 145.69 0.42 14
11 07/30/2013 16:37:31 69.42, -67.90 50.96 07/30/2013 16:36:18 69.34, -68.55 50.88 26.95 73
12 07/30/2013 17:22:01 -52.46, 112.66 144.86 07/30/2013 17:22:18 -52.46, 112.66 144.84 0.31 17
13 08/01/2013 21:20:09 63.99,-133.21 46.20 08/01/2013 21:18:56 63.99,-133.41 46.17 9.78 73




NCC Satellite Simultaneous Nadir Overpasses (SNOs) Prediction Service
